sat.trackr.live / text

‹ back to catalog

2023-104C

NORAD 57426 · 2023-104C

PAYLOAD ACTIVE UNKNOWN

§ Identity

Operator
Country
PRC
Launch date
2023-07-23
Launch site
TAISC
Launch vehicle
Mass (kg)
RCS (m²)

External: N2YO · Heavens-Above · Gunter

§ Orbital elements

Epoch: 2026-09-21T22:55:26.372640Z

Period
94.40 min
Inclination
97.2528°
Eccentricity
0.0015764
Mean motion
15.25486183 rev/d
Perigee alt
478.5 km
Apogee alt
500.2 km
Semi-major
6,867.5 km
B*
2.5317e-4
RAAN
326.3582°
Arg perigee
58.4512°
Mean anomaly
301.8263°
Rev number
17,656

§ Raw data

2023-104C1 57426U 23104C   26264.95516635  .00006362  00000+0  25317-3 0  99912 57426  97.2528 326.3582 0015764  58.4512 301.8263 15.25486183176567

JSON: /api/v1/satellites/57426 · /tle

For live sub-satellite position, see the globe view (requires WebGL).

§ Visibility from observer

Set your observer location to see the next 7 days of passes ≥ 10°. The values pass through the URL so the page stays shareable.

No JS? Fill the form by hand. The geolocation button needs JavaScript.